Sommer S — WDG3830 — position and weather

sailwx.info

Track history (hours):
 
Tides and Currents Weather Stations Pressure Air Temp Water Temp Dewpoint Dewpoint Depression Visibility Wind Speed Wind Dir Waves Ship Positions

Sommer S

Owner: Shaver Transportation Company, Portland, OR. More information available from US FCC via Universal Licensing System and Coast Guard Vessel Documentation Center.

Last reported at 2014-Oct-23 05:14 UTC. Time now 2014-Oct-23 06:51 UTC.
Position N 46°06' W 122°57'.

Length 25 m.

Type: Tug. MMSI: 367530080.

Date/timePositionNaut miles runAvg speedWind from/ knotsBaromVisibWave heightAir tempDewpointWater temp
2014-Oct-23 05:14N 46°06' W 122°57'1 1.5
2014-Oct-23 04:29N 46°05' W 122°55'1 0.9
2014-Oct-23 03:24N 46°06' W 122°56'1 0.3
2014-Oct-23 00:03N 46°05' W 122°55'0 0.0
2014-Oct-22 23:08N 46°05' W 122°55'0 0.0
2014-Oct-22 22:33N 46°05' W 122°55'0 0.0
2014-Oct-22 16:33N 46°05' W 122°55'3 0.6
2014-Oct-22 11:47N 46°07' W 122°59'0 1.1
2014-Oct-22 11:27N 46°07' W 122°58'0 0.0
2014-Oct-22 10:12N 46°07' W 122°58'6 4.7
2014-Oct-22 08:56N 46°03' W 122°53'0 0.3
2014-Oct-22 08:21N 46°03' W 122°53'4 1.5
2014-Oct-22 05:56N 46°05' W 122°56'1 0.1
2014-Oct-21 21:16N 46°06' W 122°57'30 3.1
2014-Oct-21 11:32N 45°38' W 122°42'1 0.1
2014-Oct-21 00:23N 45°38' W 122°43'0 0.1
2014-Oct-20 22:05N 45°38' W 122°43'1 0.1
2014-Oct-20 15:23N 45°38' W 122°42'38 3.2
2014-Oct-20 03:31N 46°11' W 123°11'0 0.0
2014-Oct-20 02:32N 46°11' W 123°11'0 0.0
2014-Oct-20 01:33N 46°11' W 123°11'0 0.0
2014-Oct-20 00:33N 46°11' W 123°11'0 0.0
2014-Oct-19 23:33N 46°11' W 123°11'0 0.0
2014-Oct-19 22:33N 46°11' W 123°11'0 0.0
2014-Oct-19 21:33N 46°11' W 123°11'0 0.0
2014-Oct-19 20:33N 46°11' W 123°11'0 0.0
2014-Oct-19 19:32N 46°11' W 123°11'0 0.0
2014-Oct-19 18:33N 46°11' W 123°11'0 0.0
2014-Oct-19 17:33N 46°11' W 123°11'0 0.0
2014-Oct-19 16:33N 46°11' W 123°11'0 0.0
2014-Oct-19 15:33N 46°11' W 123°11'0 0.0
2014-Oct-19 14:33N 46°11' W 123°11'0 0.0
2014-Oct-19 13:33N 46°11' W 123°11'0 0.0
2014-Oct-19 12:33N 46°11' W 123°11'0 0.0
2014-Oct-19 11:33N 46°11' W 123°11'0 0.0
2014-Oct-19 10:33N 46°11' W 123°11'0 0.0
2014-Oct-19 09:32N 46°11' W 123°11'0 0.0
2014-Oct-19 08:33N 46°11' W 123°11'  
2014-Oct-14 09:09N 45°38' W 122°42'  
Track history (hours):
 
Tides and Currents Weather Stations Pressure Air Temp Water Temp Dewpoint Dewpoint Depression Visibility Wind Speed Wind Dir Waves Ship Positions

Sommer S

Owner: Shaver Transportation Company, Portland, OR. More information available from US FCC via Universal Licensing System and Coast Guard Vessel Documentation Center.

Last reported at 2014-Oct-23 05:14 UTC. Time now 2014-Oct-23 06:51 UTC.
Position N 46°06' W 122°57'.

Length 25 m.

Type: Tug. MMSI: 367530080.

Date/timePositionNaut miles runAvg speedWind from/ knotsBaromVisibWave heightAir tempDewpointWater temp
2014-Oct-23 05:14N 46°06' W 122°57'1 1.5
2014-Oct-23 04:29N 46°05' W 122°55'1 0.9
2014-Oct-23 03:24N 46°06' W 122°56'1 0.3
2014-Oct-23 00:03N 46°05' W 122°55'0 0.0
2014-Oct-22 23:08N 46°05' W 122°55'0 0.0
2014-Oct-22 22:33N 46°05' W 122°55'0 0.0
2014-Oct-22 16:33N 46°05' W 122°55'3 0.6
2014-Oct-22 11:47N 46°07' W 122°59'0 1.1
2014-Oct-22 11:27N 46°07' W 122°58'0 0.0
2014-Oct-22 10:12N 46°07' W 122°58'6 4.7
2014-Oct-22 08:56N 46°03' W 122°53'0 0.3
2014-Oct-22 08:21N 46°03' W 122°53'4 1.5
2014-Oct-22 05:56N 46°05' W 122°56'1 0.1
2014-Oct-21 21:16N 46°06' W 122°57'30 3.1
2014-Oct-21 11:32N 45°38' W 122°42'1 0.1
2014-Oct-21 00:23N 45°38' W 122°43'0 0.1
2014-Oct-20 22:05N 45°38' W 122°43'1 0.1
2014-Oct-20 15:23N 45°38' W 122°42'38 3.2
2014-Oct-20 03:31N 46°11' W 123°11'0 0.0
2014-Oct-20 02:32N 46°11' W 123°11'0 0.0
2014-Oct-20 01:33N 46°11' W 123°11'0 0.0
2014-Oct-20 00:33N 46°11' W 123°11'0 0.0
2014-Oct-19 23:33N 46°11' W 123°11'0 0.0
2014-Oct-19 22:33N 46°11' W 123°11'0 0.0
2014-Oct-19 21:33N 46°11' W 123°11'0 0.0
2014-Oct-19 20:33N 46°11' W 123°11'0 0.0
2014-Oct-19 19:32N 46°11' W 123°11'0 0.0
2014-Oct-19 18:33N 46°11' W 123°11'0 0.0
2014-Oct-19 17:33N 46°11' W 123°11'0 0.0
2014-Oct-19 16:33N 46°11' W 123°11'0 0.0
2014-Oct-19 15:33N 46°11' W 123°11'0 0.0
2014-Oct-19 14:33N 46°11' W 123°11'0 0.0
2014-Oct-19 13:33N 46°11' W 123°11'0 0.0
2014-Oct-19 12:33N 46°11' W 123°11'0 0.0
2014-Oct-19 11:33N 46°11' W 123°11'0 0.0
2014-Oct-19 10:33N 46°11' W 123°11'0 0.0
2014-Oct-19 09:32N 46°11' W 123°11'0 0.0
2014-Oct-19 08:33N 46°11' W 123°11'  
2014-Oct-14 09:09N 45°38' W 122°42'  

Dump ship's entire track history